Showing default

JILIN-01-06, 43024

Orbit data source: Space-Track

JILIN-01-06, 43024 is a payload satellite owned by Changguang WJ (CN) in SSO that was launched on Tue, 21 Nov 2017 UTC via a CHANG ZHENG 6 launch vehicle from the Taiyaun Space Center, China (TSC). Payload-class satellites include a variety of spacecraft equipped with specific instruments for various scientific and technological missions. These include communications satellites like Starlink; space stations such as the ISS; scientific satellites like the Hubble; Earth observation satellites from companies like Planet Labs, Umbra, and HawkEye 360; GPS; miniature CubeSats for education and research; and military/defense satellites.

Loading next visibility...
Identifier
43024, 2017-074C
Orbit
SSO
Last TLE update
4 hours ago
Origin
Manufacturer
HARB/CIOMP
Mission
Operational Commercial Imaging
Bus & Motor
JL-1, Unknown motor
Mass
95 kg wet, 95 kg dry
Launch date (UTC)
2017-11-21 (8 years ago)
Launch vehicle
CHANG ZHENG 6
Launch site
Taiyaun Space Center, China (TSC)
Object type
Payload
Rocket body
Debris
Shape & HBR
Box + 2 Pan, 1.5 m
Radar Cross Section
2.000 m², Medium (>0.1 m² and < 1m²)

Expand to show TLE details & history

TLE from 4 hours ago
0 JILIN-01-06
1 43024U 17074C   25175.52987147  .00005208  00000-0  19679-3 0  9995
2 43024  97.4790 271.0363 0009187  73.8386 286.3864 15.27397104419126
Epoch: 2025-06-24T12:43Z
TLE epoch observation values (Epoch: 2025-06-24T12:43:00.894Z)
Latitude
Longitude
167.3581°
Altitude
484.922 km
Speed
7.624 km/s
True Right ascension
18h 04m 08s
True Declination
0° 00' 00"
Sunlit
Object was in full shadow at epoch
Visualization orbit readout
Latitude
-55.7886°
Longitude
178.61594°
Altitude
509.275 km
Speed
7.606 km/s
Apparent Right ascension
17h 27m 26s
Apparent Declination
-49° 25' 25"
Sunlit
Object is in full shadow
Visualization observer readout
Local Sidereal Time
04:23:12
Azimuth
224.755° SW
Elevation
-75.195°
Doppler factor
1
Orbital elements
Apogee altitude
486.857 km
Perigee altitude
474.255 km
Semi-major axis
6,858.693 km
Eccentricity
0.00092
Inclination
97.479°
RAAN
271.0363°
Arg. of periapsis
73.8386°
True anomaly
Unknown
Mean anomaly
286.3864°
Eccentric anomaly
Unknown
Mean motion
3.82104 °/min
Orbital period
94.22 mins
BSTAR
0.00019679
Loading maneuver chart data...
Loading SW <> Apogee altitude chart data...
Loading historical data...
Loading historical data...
Loading historical data...
Loading historical data...
Loading historical data...
Loading historical data...
Loading historical data...
Other satellites on launch #74 in the year 2017 (2017-11-21 UTC)

JILIN-01-06 Visibility forecast

Observer location: undefined°, undefined°

Span
Click to sort rows by Start time (UTC) header in descending order
Start Az.
Max El. time (UTC)
Max El. Az.
Max El.
End time (UTC)
End Az.
5 mins2025-06-24 19:34:14.766Z354.777° N2025-06-24 19:36:14.766Z310.077° NW35.465°2025-06-24 19:39:14.766Z215.002° SW
5 mins2025-06-25 06:09:14.766Z144.814° SSE2025-06-25 06:11:14.766Z89.611° E37.805°2025-06-25 06:14:14.766Z1.048° NNE
|